MAUNA LOA HI US current weather conditions

sailwx.info

Wind from 311 at 3 knots gusting 6

Air temperature 12.8° C
Dewpoint 12.8° C

Last reported at 2014-Oct-23 10:34 UTC.
Time now 2014-Oct-23 11:49 UTC

Location: N 19°28' W 155°22'.
View on Google Maps.

See reports from other nearby stations

  
Tides and Currents Weather Stations Pressure Air Temp Water Temp Dewpoint Dewpoint Depression Visibility Wind Speed Wind Dir Waves Ship Positions
date/time (UTC)wind fromknots sea level pressurealtimeterstation pressurevisibilityair tempwater tempwave heightnotes
2014-Oct-23 10:34 311 3 gusting 6 12.8
2014-Oct-23 09:34 204 2 gusting 6 13.9
2014-Oct-23 08:34 311 5 gusting 6 14.4
2014-Oct-23 07:34 333 2 gusting 4 14.4
2014-Oct-23 06:34 251 0 gusting 4 13.9
2014-Oct-23 05:34 008 3 gusting 6 15.0
2014-Oct-23 04:34 018 5 gusting 8 15.6
2014-Oct-23 03:34 031 4 gusting 7 16.1
2014-Oct-23 02:34 046 2 gusting 5 16.7
2014-Oct-23 01:34 138 3 gusting 6 17.2
2014-Oct-23 00:34 136 1 gusting 6 17.2
2014-Oct-22 23:34 125 3 gusting 9 18.3
2014-Oct-22 22:34 158 5 gusting 10 21.1
2014-Oct-22 21:34 090 3 gusting 10 21.7
2014-Oct-22 20:34 124 3 gusting 10 23.3
2014-Oct-22 19:34 120 1 gusting 6 22.2
2014-Oct-22 18:34 098 1 gusting 4 21.1
2014-Oct-22 17:34 16.1
2014-Oct-22 16:34 313 4 gusting 5 8.9
2014-Oct-22 15:34 311 3 gusting 5 8.9
2014-Oct-22 13:34 307 4 gusting 5 8.3
2014-Oct-22 12:34 308 4 gusting 6 8.9
2014-Oct-22 11:34 306 1 gusting 4 8.9
2014-Oct-22 10:34 9.4
2014-Oct-22 09:34 318 3 gusting 6 10.0
2014-Oct-22 08:34 323 3 gusting 5 9.4
2014-Oct-22 07:34 312 4 gusting 5 10.0
2014-Oct-22 06:34 339 3 gusting 5 11.1
2014-Oct-22 05:34 352 3 gusting 6 13.3
2014-Oct-22 04:34 359 2 gusting 4 13.3
2014-Oct-22 03:34 076 1 gusting 4 17.2
2014-Oct-22 02:34 107 3 gusting 7 18.3
2014-Oct-22 01:34 107 4 gusting 8 19.4
2014-Oct-22 00:34 140 5 gusting 9 20.6
2014-Oct-21 23:34 170 3 gusting 8 20.6
2014-Oct-21 22:34 088 3 gusting 11 22.8
2014-Oct-21 21:34 115 4 gusting 9 23.3
2014-Oct-21 20:34 087 4 gusting 10 23.9
2014-Oct-21 19:34 053 3 gusting 9 22.8
2014-Oct-21 18:34 045 3 gusting 7 21.7
2014-Oct-21 17:34 333 3 gusting 9 18.9
2014-Oct-21 16:34 312 6 gusting 8 10.6
2014-Oct-21 15:34 308 4 gusting 10 10.6
2014-Oct-21 14:34 307 6 gusting 8 10.6
2014-Oct-21 12:34 314 6 gusting 7 9.4
2014-Oct-21 11:34 312 6 gusting 7 9.4